This is the latest recevied weather packets stored in our database for station/object K5OLV. If no packets are shown the sender has not sent any weather packets the latest 10 day(s).
| Time | Temp. | Humidity | Pressure | Rain* | Wind** | Luminosity | Snow |
|---|---|---|---|---|---|---|---|
| 1777679450 | 15° C | 71% | 1010.4 hPa | 0 mm | - | 15 W/m² | - |
| 1777679145 | 15° C | 72% | 1010.4 hPa | 0 mm | - | 17 W/m² | - |
| 1777678844 | 15° C | 72% | 1010.3 hPa | 0 mm | - | 19 W/m² | - |
| 1777678541 | 15° C | 74% | 1010.4 hPa | 0 mm | - | 25 W/m² | - |
| 1777678238 | 15° C | 71% | 1009.8 hPa | 0 mm | - | 27 W/m² | - |
| 1777677934 | 15.56° C | 67% | 1010.2 hPa | 0 mm | - | 31 W/m² | - |
| 1777677632 | 15.56° C | 67% | 1010.2 hPa | 0 mm | - | 35 W/m² | - |
| 1777677329 | 15.56° C | 66% | 1010.5 hPa | 0 mm | - | 37 W/m² | - |
| 1777677027 | 15.56° C | 67% | 1010.5 hPa | 0 mm | - | 40 W/m² | - |
| 1777676726 | 15.56° C | 68% | 1010.5 hPa | 0 mm | - | 51 W/m² | - |
| 1777676423 | 15.56° C | 67% | 1010.5 hPa | 0 mm | - | 59 W/m² | - |
| 1777676121 | 16.11° C | 64% | 1010.3 hPa | 0 mm | - | 72 W/m² | - |
| 1777675817 | 16.11° C | 65% | 1010.1 hPa | 0 mm | - | 78 W/m² | - |
| 1777675515 | 16.11° C | 69% | 1010 hPa | 0 mm | - | 80 W/m² | - |
| 1777675211 | 16.11° C | 65% | 1009.7 hPa | 0 mm | - | 88 W/m² | - |
| 1777674908 | 16.11° C | 66% | 1009.7 hPa | 0 mm | - | 107 W/m² | - |
| 1777674604 | 16.11° C | 65% | 1009.7 hPa | 0 mm | - | 118 W/m² | - |
| 1777674301 | 16.67° C | 66% | 1009.8 hPa | 0 mm | - | 116 W/m² | - |
| 1777673997 | 16.67° C | 64% | 1009.7 hPa | 0 mm | - | 122 W/m² | - |
| 1777673694 | 16.11° C | 63% | 1009.7 hPa | 0 mm | - | 134 W/m² | - |
| 1777673392 | 16.67° C | 67% | 1009.6 hPa | 0 mm | - | 134 W/m² | - |
| 1777673089 | 17.22° C | 62% | 1009.7 hPa | 0 mm | - | 263 W/m² | - |
| 1777672785 | 16.67° C | 68% | 1009.8 hPa | 0 mm | - | 262 W/m² | - |
| 1777672482 | 16.67° C | 68% | 1009.7 hPa | 0 mm | - | 226 W/m² | - |
| 1777672177 | 16.67° C | 64% | 1009.7 hPa | 0 mm | - | 293 W/m² | - |
* Rain latest hour (hover to see other rain measurements)
** Current wind speed in m/s (hover to see current wind gust speed)